This is the latest recevied weather packets stored in our database for station/object KC5TIL-3. If no packets are shown the sender has not sent any weather packets the latest 10 day(s).
| Time | Temp. | Humidity | Pressure | Rain* | Wind** | Luminosity | Snow |
|---|---|---|---|---|---|---|---|
| 1788091852 | 26.67° C | 43% | 1012.8 hPa | 0 mm | 2.24 m/s, 206° | - | - |
| 1788091553 | 26.67° C | 43% | 1012.8 hPa | 0 mm | 2.68 m/s, 196° | - | - |
| 1788091255 | 26.67° C | 43% | 1012.8 hPa | 0 mm | 3.58 m/s, 207° | - | - |
| 1788090954 | 26.67° C | 42% | 1012.8 hPa | 0 mm | 3.13 m/s, 206° | - | - |
| 1788090656 | 26.67° C | 42% | 1012.8 hPa | 0 mm | 3.13 m/s, 195° | - | - |
| 1788090358 | 26.67° C | 42% | 1012.8 hPa | 0 mm | 3.13 m/s, 213° | - | - |
| 1788090056 | 26.67° C | 42% | 1012.8 hPa | 0 mm | 3.58 m/s, 201° | - | - |
| 1788089758 | 26.67° C | 41% | 1012.8 hPa | 0 mm | 3.13 m/s, 171° | - | - |
| 1788089455 | 26.67° C | 40% | 1012.8 hPa | 0 mm | 3.13 m/s, 215° | - | - |
| 1788089149 | 27.22° C | 40% | 1012.8 hPa | 0 mm | 1.79 m/s, 198° | - | - |
| 1788088851 | 27.22° C | 40% | 1012.8 hPa | 0 mm | 1.79 m/s, 184° | - | - |
| 1788088553 | 27.22° C | 39% | 1012.8 hPa | 0 mm | 3.58 m/s, 219° | - | - |
| 1788088247 | 27.22° C | 38% | 1012.8 hPa | 0 mm | 3.13 m/s, 223° | - | - |
| 1788087949 | 27.22° C | 37% | 1012.8 hPa | 0 mm | 2.68 m/s, 190° | - | - |
| 1788087651 | 27.78° C | 36% | 1012.8 hPa | 0 mm | 3.13 m/s, 195° | - | - |
| 1788087349 | 27.78° C | 37% | 1012.8 hPa | 0 mm | 3.13 m/s, 196° | - | - |
| 1788087051 | 27.78° C | 36% | 1012.8 hPa | 0 mm | 3.58 m/s, 201° | - | - |
| 1788086749 | 27.78° C | 35% | 1012.8 hPa | 0 mm | 2.68 m/s, 206° | - | - |
| 1788086447 | 27.78° C | 35% | 1012.8 hPa | 0 mm | 2.68 m/s, 170° | - | - |
| 1788086149 | 27.78° C | 34% | 1012.8 hPa | 0 mm | 4.02 m/s, 210° | - | - |
| 1788085851 | 27.78° C | 34% | 1011.8 hPa | 0 mm | 3.58 m/s, 200° | - | - |
| 1788085550 | 28.33° C | 34% | 1011.8 hPa | 0 mm | 3.13 m/s, 212° | - | - |
| 1788085251 | 28.33° C | 33% | 1011.8 hPa | 0 mm | 3.58 m/s, 191° | - | - |
| 1788084953 | 28.33° C | 33% | 1011.8 hPa | 0 mm | 3.58 m/s, 219° | - | - |
| 1788084652 | 28.33° C | 33% | 1011.8 hPa | 0 mm | 3.13 m/s, 235° | - | - |
* Rain latest hour (hover to see other rain measurements)
** Current wind speed in m/s (hover to see current wind gust speed)